FW2929 Weather Reports


Display with metric or nautical units.
time (UTC)temp
F
wind
direction
speed
MPH
gust
MPH
rain 1hr
in
rain 24hr
in
rain mn
in
humidity
%
barometer
mb
20260507171837 58 169 0.0 0.0 0.00 0.00 0.00 65 1014.9
20260507171352 59 360 0.0 0.0 0.00 0.00 0.00 66 1014.9
20260507170842 59 360 0.0 0.0 0.00 0.00 0.00 67 1014.9
20260507170333 59 360 0.0 0.0 0.00 0.00 0.00 67 1014.9
20260507165841 59 360 0.0 0.0 0.00 0.00 0.00 66 1014.9
20260507165401 59 169 0.0 0.0 0.00 0.00 0.00 67 1015.0
20260507164830 59 360 0.0 0.0 0.00 0.00 0.00 66 1015.0
20260507164340 59 360 0.0 0.0 0.00 0.00 0.00 66 1015.0
20260507163900 59 360 0.0 0.0 0.00 0.00 0.00 67 1015.0
20260507163347 59 360 0.0 0.0 0.00 0.00 0.00 66 1014.9
20260507162836 59 360 0.0 0.0 0.00 0.00 0.00 66 1015.0
20260507162346 59 169 0.0 0.0 0.00 0.00 0.00 63 1015.0
20260507161906 59 169 0.0 0.0 0.00 0.00 0.00 65 1014.9
20260507161332 59 169 0.0 0.0 0.00 0.00 0.00 65 1015.0
20260507160843 59 169 0.0 0.0 0.00 0.00 0.00 64 1015.0
20260507160335 59 169 0.0 0.0 0.00 0.00 0.00 63 1015.1
20260507155845 59 169 0.0 0.0 0.00 0.00 0.00 66 1015.1
20260507155352 59 169 0.0 0.0 0.00 0.00 0.00 66 1015.0
20260507154842 59 360 0.0 0.0 0.00 0.00 0.00 67 1015.0
20260507154333 59 360 0.0 0.0 0.00 0.00 0.00 68 1015.0
20260507153844 59 360 0.0 0.0 0.00 0.00 0.00 66 1015.0
20260507153344 58 169 0.0 0.0 0.00 0.00 0.00 69 1015.0
20260507152834 58 169 0.0 0.0 0.00 0.00 0.00 68 1014.9
20260507152345 58 169 0.0 0.0 0.00 0.00 0.00 69 1015.0
20260507151836 58 360 0.0 0.0 0.00 0.00 0.00 68 1014.9
20260507151344 58 169 0.0 0.0 0.00 0.00 0.00 69 1015.0
20260507150836 57 169 0.0 0.0 0.00 0.00 0.00 70 1014.9
20260507150329 57 169 0.0 0.0 0.00 0.00 0.00 69 1015.0
20260507145839 57 169 0.0 0.0 0.00 0.00 0.00 70 1015.0
20260507145331 57 360 0.0 0.0 0.00 0.00 0.00 70 1014.9
20260507144841 57 360 0.0 0.0 0.00 0.00 0.00 70 1014.9
20260507144352 57 360 0.0 0.0 0.00 0.00 0.00 70 1014.9
20260507143843 57 360 0.0 0.0 0.00 0.00 0.00 69 1014.9
20260507143352 57 360 0.0 0.0 0.00 0.00 0.00 70 1015.0
20260507142841 57 360 0.0 0.0 0.00 0.00 0.00 70 1015.0
20260507142331 57 360 0.0 0.0 0.00 0.00 0.00 68 1015.0
20260507141842 57 360 0.0 0.0 0.00 0.00 0.00 69 1015.0
20260507141333 57 360 0.0 0.0 0.00 0.00 0.00 68 1015.0
20260507140844 57 360 0.0 0.0 0.00 0.00 0.00 67 1015.1
20260507140338 57 360 0.0 0.0 0.00 0.00 0.00 66 1015.1
20260507135826 57 360 0.0 0.0 0.00 0.00 0.00 67 1015.1
20260507135333 58 360 0.0 0.0 0.00 0.00 0.00 67 1015.1
20260507134845 57 360 0.0 0.0 0.00 0.00 0.00 67 1015.1
20260507134337 58 360 0.0 0.0 0.00 0.00 0.00 67 1015.1
20260507133836 58 360 0.0 0.0 0.00 0.00 0.00 66 1015.1
20260507133350 58 360 0.0 0.0 0.00 0.00 0.00 67 1015.1
20260507132838 58 360 0.0 0.0 0.00 0.00 0.00 66 1015.1
20260507132329 58 69 0.0 0.0 0.00 0.00 0.00 66 1015.1
20260507131841 58 65 0.0 0.0 0.00 0.00 0.00 66 1015.1
20260507131329 58 65 0.0 0.0 0.00 0.00 0.00 67 1015.1
20260507130841 58 65 0.0 0.0 0.00 0.00 0.00 68 1015.1
20260507130355 58 65 0.0 0.0 0.00 0.00 0.00 67 1015.2
20260507125843 58 65 0.0 0.0 0.00 0.00 0.00 65 1015.1
20260507125335 57 65 0.0 0.0 0.00 0.00 0.00 66 1015.1
20260507124827 57 65 0.0 0.0 0.00 0.00 0.00 65 1015.1
20260507124346 57 65 0.0 0.0 0.00 0.00 0.00 67 1015.1
20260507123836 57 65 0.0 0.0 0.00 0.00 0.00 67 1015.1
20260507123346 57 67 0.0 0.0 0.00 0.00 0.00 67 1015.1
20260507122835 57 360 0.0 0.0 0.00 0.00 0.00 69 1015.1
20260507122346 57 360 0.0 0.0 0.00 0.00 0.00 67 1015.1
20260507121837 57 360 0.0 0.0 0.00 0.00 0.00 67 1015.2
20260507121326 57 360 0.0 0.0 0.00 0.00 0.00 66 1015.1
20260507120906 57 360 0.0 0.0 0.00 0.00 0.00 63 1015.1
20260507120336 57 360 0.0 2.0 0.00 0.00 0.00 63 1015.1
20260507115843 57 360 0.0 2.0 0.00 0.00 0.00 63 1015.2
20260507115359 57 360 0.0 3.0 0.00 0.00 0.00 64 1015.2
20260507114859 57 360 0.0 2.0 0.00 0.00 0.00 64 1015.2
20260507114356 57 360 1.0 2.0 0.00 0.00 0.00 63 1015.1
20260507113853 58 360 1.0 2.0 0.00 0.00 0.00 63 1015.2
20260507113344 58 360 0.0 2.0 0.00 0.00 0.00 64 1015.1
20260507112900 58 360 0.0 2.0 0.00 0.00 0.00 66 1015.2
20260507112329 58 360 0.0 2.0 0.00 0.00 0.00 64 1015.2
20260507111835 58 360 0.0 3.0 0.00 0.00 0.00 63 1015.2
20260507111344 59 360 0.0 3.0 0.00 0.00 0.00 62 1015.2
20260507110902 59 360 0.0 1.0 0.00 0.00 0.00 64 1015.2
20260507110339 59 66 0.0 3.0 0.00 0.00 0.00 65 1015.2
20260507105848 59 67 1.0 3.0 0.00 0.00 0.00 59 1015.3
20260507105356 60 80 0.0 1.0 0.00 0.00 0.00 62 1015.3
20260507104841 60 360 0.0 1.0 0.00 0.00 0.00 63 1015.3
20260507104351 60 80 0.0 4.0 0.00 0.00 0.00 64 1015.3
20260507103840 60 80 1.0 4.0 0.00 0.00 0.00 60 1015.3
20260507103332 60 75 0.0 4.0 0.00 0.00 0.00 63 1015.3
20260507102840 60 360 0.0 4.0 0.00 0.00 0.00 62 1015.5
20260507102330 59 360 2.0 4.0 0.00 0.00 0.00 61 1015.4
20260507101840 59 360 0.0 4.0 0.00 0.00 0.00 64 1015.5
20260507101329 59 360 0.0 4.0 0.00 0.00 0.00 64 1015.4
20260507100835 59 360 1.0 5.0 0.00 0.00 0.00 61 1015.5
20260507100345 59 360 2.0 5.0 0.00 0.00 0.00 60 1015.3
20260507095850 59 360 0.0 0.0 0.00 0.00 0.00 64 1015.3
20260507095407 59 196 0.0 2.0 0.00 0.00 0.00 65 1015.2
20260507094830 59 360 0.0 1.0 0.00 0.00 0.00 62 1015.3
20260507094339 58 360 0.0 2.0 0.00 0.00 0.00 61 1015.3
20260507093830 59 198 0.0 2.0 0.00 0.00 0.00 62 1015.2
20260507093407 59 186 1.0 2.0 0.00 0.00 0.00 62 1015.3
20260507092835 59 232 0.0 1.0 0.00 0.00 0.00 62 1015.1
20260507092346 59 232 0.0 1.0 0.00 0.00 0.00 67 1015.2
20260507091905 58 360 0.0 2.0 0.00 0.00 0.00 69 1015.1
20260507091335 58 360 0.0 2.0 0.00 0.00 0.00 63 1015.1
20260507090846 58 296 0.0 0.0 0.00 0.00 0.00 67 1015.0
20260507090338 58 57 0.0 0.0 0.00 0.00 0.00 67 1015.0
20260507085841 57 360 0.0 0.0 0.00 0.00 0.00 67 1015.0
20260507085359 57 360 0.0 2.0 0.00 0.00 0.00 69 1015.0
20260507084828 57 360 0.0 3.0 0.00 0.00 0.00 70 1014.9
20260507084339 57 360 2.0 3.0 0.00 0.00 0.00 65 1014.9
20260507083830 57 360 0.0 2.0 0.00 0.00 0.00 66 1014.9
20260507083344 56 360 0.0 2.0 0.00 0.00 0.00 63 1014.9
20260507082832 56 360 0.0 0.0 0.00 0.00 0.00 68 1014.8
20260507082343 56 360 0.0 0.0 0.00 0.00 0.00 68 1014.9
20260507081832 56 360 0.0 0.0 0.00 0.00 0.00 68 1014.9
20260507081335 56 360 0.0 0.0 0.00 0.00 0.00 70 1014.9
20260507080843 56 360 0.0 0.0 0.00 0.00 0.00 71 1014.9
20260507080333 55 360 0.0 1.0 0.00 0.00 0.00 72 1014.8
20260507075838 55 360 0.0 1.0 0.00 0.00 0.00 71 1014.8
20260507075335 54 56 0.0 1.0 0.00 0.00 0.00 73 1014.8
20260507074845 54 360 0.0 1.0 0.00 0.00 0.00 74 1014.7
20260507074355 54 360 0.0 0.0 0.00 0.00 0.00 75 1014.8
20260507073838 53 360 0.0 1.0 0.00 0.00 0.00 78 1014.7
20260507073349 53 360 0.0 0.0 0.00 0.00 0.00 81 1014.7
20260507072831 53 360 0.0 0.0 0.00 0.00 0.00 83 1014.6
20260507072340 52 360 0.0 0.0 0.00 0.00 0.00 82 1014.6
20260507071837 52 360 0.0 0.0 0.00 0.00 0.00 87 1014.6
20260507071347 52 360 0.0 0.0 0.00 0.00 0.00 86 1014.5
20260507070837 52 360 0.0 1.0 0.00 0.00 0.00 88 1014.5
20260507070345 52 360 0.0 0.0 0.00 0.00 0.00 90 1014.4
20260507065831 51 360 0.0 0.0 0.00 0.00 0.00 90 1014.5
20260507065340 51 57 0.0 0.0 0.00 0.00 0.00 91 1014.4
20260507064859 51 57 0.0 0.0 0.00 0.00 0.00 92 1014.5
20260507064348 51 57 0.0 0.0 0.00 0.00 0.00 92 1014.4
20260507063836 50 57 0.0 0.0 0.00 0.00 0.00 92 1014.3
20260507063346 50 57 0.0 0.0 0.00 0.00 0.00 93 1014.3
20260507062856 50 57 0.0 0.0 0.00 0.00 0.00 93 1014.3
20260507062331 50 57 0.0 0.0 0.00 0.00 0.00 93 1014.3
20260507061839 50 57 0.0 0.0 0.00 0.00 0.00 94 1014.2
20260507061346 49 57 0.0 0.0 0.00 0.00 0.00 94 1014.2
20260507060836 49 57 0.0 0.0 0.00 0.00 0.00 94 1014.2
20260507060344 49 57 0.0 0.0 0.00 0.00 0.00 94 1014.1
20260507055847 49 57 0.0 0.0 0.00 0.00 0.00 94 1014.1
20260507055336 49 57 0.0 0.0 0.00 0.00 0.00 94 1014.0
20260507054839 49 57 0.0 0.0 0.00 0.00 0.00 93 1014.0
20260507054356 49 57 0.0 0.0 0.00 0.00 0.00 94 1014.0
20260507053843 48 57 0.0 0.0 0.00 0.00 0.00 94 1013.9
20260507053332 48 57 0.0 0.0 0.00 0.00 0.00 93 1013.8
20260507052838 48 57 0.0 0.0 0.00 0.00 0.00 93 1013.9
20260507052328 48 57 0.0 0.0 0.00 0.00 0.00 93 1013.7
20260507051838 48 57 0.0 0.0 0.00 0.00 0.00 93 1013.6
20260507051328 48 57 0.0 0.0 0.00 0.00 0.00 93 1013.7
20260507050837 48 57 0.0 0.0 0.00 0.00 0.00 93 1013.5
20260507050335 48 57 0.0 0.0 0.00 0.00 0.00 93 1013.5
20260507045844 48 57 0.0 0.0 0.00 0.00 0.00 93 1013.5
20260507045403 48 57 0.0 0.0 0.00 0.00 0.00 93 1013.4
20260507044901 48 57 0.0 0.0 0.00 0.00 0.00 93 1013.4
20260507044329 48 57 0.0 0.0 0.00 0.00 0.00 93 1013.4
20260507043840 48 57 0.0 0.0 0.00 0.00 0.00 93 1013.4
20260507043348 48 56 0.0 0.0 0.00 0.00 0.00 93 1013.4
20260507042837 48 360 0.0 0.0 0.00 0.00 0.00 93 1013.4
20260507042328 48 360 0.0 0.0 0.00 0.00 0.00 93 1013.4
20260507041841 48 360 0.0 0.0 0.00 0.00 0.00 93 1013.4
20260507041352 48 360 0.0 0.0 0.00 0.00 0.00 93 1013.3
20260507040843 48 360 0.0 0.0 0.00 0.00 0.00 93 1013.3
20260507040338 48 360 0.0 0.0 0.00 0.00 0.00 93 1013.3
20260507035828 48 360 0.0 0.0 0.00 0.00 0.00 93 1013.2
20260507035336 48 360 0.0 0.0 0.00 0.00 0.00 93 1013.2
20260507034850 48 360 0.0 0.0 0.00 0.00 0.00 93 1013.2
20260507034343 48 360 0.0 0.0 0.00 0.00 0.00 93 1013.2
20260507033835 48 360 0.0 0.0 0.00 0.00 0.00 93 1013.2
20260507033347 48 360 0.0 0.0 0.00 0.00 0.00 93 1013.1
20260507032844 48 360 0.0 0.0 0.00 0.00 0.00 93 1013.1
20260507032354 48 360 0.0 0.0 0.00 0.00 0.00 93 1013.1
20260507031840 48 360 0.0 0.0 0.00 0.00 0.00 93 1013.0
20260507031400 48 360 0.0 0.0 0.00 0.00 0.00 93 1013.0
20260507030830 47 360 0.0 0.0 0.00 0.00 0.00 93 1013.0
20260507030344 47 360 0.0 0.0 0.00 0.00 0.00 93 1012.9
20260507025832 47 360 0.0 0.0 0.00 0.00 0.00 93 1013.0
20260507025347 47 360 0.0 0.0 0.00 0.00 0.00 93 1012.9
20260507024843 47 360 0.0 0.0 0.00 0.00 0.00 93 1012.9
20260507024337 47 360 0.0 0.0 0.00 0.00 0.00 93 1012.8
20260507023831 47 360 0.0 0.0 0.00 0.00 0.00 93 1012.8
20260507023342 47 360 0.0 0.0 0.00 0.00 0.00 93 1012.9
20260507022842 47 360 0.0 0.0 0.00 0.00 0.00 93 1012.9
20260507022333 47 360 0.0 0.0 0.00 0.00 0.00 93 1012.9
20260507021846 47 360 0.0 0.0 0.00 0.00 0.00 93 1012.9
20260507021341 47 360 0.0 0.0 0.00 0.00 0.00 93 1012.8
20260507020903 47 360 0.0 0.0 0.00 0.00 0.00 92 1012.7
20260507020402 47 360 0.0 0.0 0.00 0.00 0.00 93 1012.6
20260507015903 47 360 0.0 0.0 0.00 0.00 0.00 92 1012.6
20260507015359 47 360 0.0 0.0 0.00 0.00 0.00 92 1012.6
20260507014830 47 360 0.0 0.0 0.00 0.00 0.00 92 1012.4
20260507014343 47 360 0.0 0.0 0.00 0.00 0.00 92 1012.6
20260507013838 47 360 0.0 0.0 0.00 0.00 0.00 92 1012.6
20260507013332 47 360 0.0 0.0 0.00 0.00 0.00 92 1012.5
20260507012844 47 360 0.0 0.0 0.00 0.00 0.00 92 1012.5
20260507012407 47 360 0.0 0.0 0.00 0.00 0.00 92 1012.5
20260507011837 47 360 0.0 0.0 0.00 0.00 0.00 92 1012.5
20260507011344 47 360 0.0 0.0 0.00 0.00 0.00 92 1012.5
20260507010836 47 360 0.0 0.0 0.00 0.00 0.00 92 1012.4
20260507010357 47 360 0.0 0.0 0.00 0.00 0.00 92 1012.4
20260507005846 47 360 0.0 0.0 0.00 0.00 0.00 92 1012.4
20260507005338 47 360 0.0 0.0 0.00 0.00 0.00 92 1012.4
20260507004831 47 360 0.0 0.0 0.00 0.00 0.00 92 1012.4
20260507004345 47 360 0.0 0.0 0.00 0.00 0.00 92 1012.5
20260507003839 46 360 0.0 0.0 0.00 0.00 0.00 93 1012.5
20260507003331 46 360 0.0 0.0 0.00 0.00 0.00 92 1012.5
20260507002839 46 360 0.0 0.0 0.00 0.00 0.00 92 1012.5
20260507002333 46 360 0.0 0.0 0.00 0.00 0.00 92 1012.5
20260507001846 46 360 0.0 0.0 0.00 0.00 0.00 92 1012.5
20260507001338 46 360 0.0 0.0 0.00 0.00 0.00 92 1012.4
20260507000830 46 360 0.0 0.0 0.00 0.00 0.00 91 1012.5
20260507000350 46 360 0.0 0.0 0.00 0.00 0.00 90 1012.4
20260506235840 46 360 0.0 0.0 0.00 0.00 0.00 90 1012.4
20260506235332 46 360 0.0 0.0 0.00 0.00 0.00 90 1012.4
20260506234841 46 360 0.0 0.0 0.00 0.00 0.00 90 1012.5
20260506234333 46 360 0.0 0.0 0.00 0.00 0.00 90 1012.5
20260506233845 46 360 0.0 0.0 0.00 0.00 0.00 90 1012.4
20260506233338 46 360 0.0 0.0 0.00 0.00 0.00 90 1012.3
20260506232828 46 360 0.0 0.0 0.00 0.00 0.00 90 1012.3
20260506232339 46 360 0.0 0.0 0.00 0.00 0.00 89 1012.2
20260506231830 46 360 0.0 0.0 0.00 0.00 0.00 89 1012.2
20260506231336 46 360 0.0 0.0 0.00 0.00 0.00 89 1012.2
20260506230845 47 360 0.0 0.0 0.00 0.00 0.00 89 1012.1
20260506230349 47 360 0.0 0.0 0.00 0.00 0.00 89 1012.1
20260506225844 47 360 0.0 0.0 0.00 0.00 0.00 89 1012.2
20260506225332 47 360 0.0 0.0 0.00 0.00 0.00 89 1012.1
20260506224841 47 360 0.0 0.0 0.00 0.00 0.00 89 1012.1
20260506224330 47 360 0.0 0.0 0.00 0.00 0.00 89 1012.1
20260506223908 47 360 0.0 0.0 0.00 0.00 0.00 89 1012.1
20260506223356 47 360 0.0 0.0 0.00 0.00 0.00 89 1012.0
20260506222838 47 360 0.0 0.0 0.00 0.00 0.00 89 1011.9
20260506222329 48 360 0.0 0.0 0.00 0.00 0.00 89 1011.8
20260506221837 48 360 0.0 0.0 0.00 0.00 0.00 88 1011.9
20260506221355 48 360 0.0 0.0 0.00 0.00 0.00 88 1011.8
20260506220845 48 360 0.0 0.0 0.00 0.00 0.00 88 1011.8
20260506220403 48 360 0.0 0.0 0.00 0.00 0.00 88 1011.7
20260506215830 48 360 0.0 0.0 0.00 0.00 0.00 87 1011.6
20260506215337 48 360 0.0 0.0 0.00 0.00 0.00 87 1011.6
20260506214846 48 360 0.0 0.0 0.00 0.00 0.00 87 1011.6
20260506214336 48 360 0.0 0.0 0.00 0.00 0.00 86 1011.7
20260506213847 48 360 0.0 0.0 0.00 0.00 0.00 86 1011.6
20260506213338 48 360 0.0 0.0 0.00 0.00 0.00 86 1011.6
20260506212835 49 360 0.0 0.0 0.00 0.00 0.00 86 1011.6
20260506212344 49 360 0.0 0.0 0.00 0.00 0.00 85 1011.6
20260506211835 49 360 0.0 0.0 0.00 0.00 0.00 85 1011.4
20260506211342 49 360 0.0 0.0 0.00 0.00 0.00 85 1011.4
20260506210832 49 360 0.0 0.0 0.00 0.00 0.00 85 1011.3
20260506210342 49 360 0.0 0.0 0.00 0.00 0.00 85 1011.3
20260506205831 49 360 0.0 0.0 0.00 0.00 0.00 85 1011.3
20260506205340 49 360 0.0 1.0 0.00 0.00 0.00 85 1011.3
20260506204831 49 360 0.0 0.0 0.00 0.00 0.00 84 1011.3
20260506204341 49 360 0.0 0.0 0.00 0.00 0.00 84 1011.2
20260506203831 49 360 0.0 0.0 0.00 0.00 0.00 83 1011.3
20260506203340 49 360 0.0 0.0 0.00 0.00 0.00 83 1011.3
20260506202846 49 360 0.0 0.0 0.00 0.00 0.00 82 1011.2
20260506202405 50 360 0.0 0.0 0.00 0.00 0.00 82 1011.1
20260506201846 50 360 0.0 0.0 0.00 0.00 0.00 81 1011.1
20260506201334 50 360 0.0 0.0 0.00 0.00 0.00 81 1011.0
20260506200843 50 360 0.0 0.0 0.00 0.00 0.00 81 1011.0
20260506200405 50 360 0.0 0.0 0.00 0.00 0.00 80 1011.0
20260506195838 51 360 0.0 0.0 0.00 0.00 0.00 80 1010.9
20260506195354 51 360 0.0 0.0 0.00 0.00 0.00 79 1010.9
20260506194847 51 360 0.0 1.0 0.00 0.00 0.00 79 1010.9
20260506194339 51 360 0.0 1.0 0.00 0.00 0.00 78 1010.9
20260506193849 51 360 0.0 0.0 0.00 0.00 0.00 78 1010.9
20260506193341 52 360 0.0 0.0 0.00 0.00 0.00 77 1010.8
20260506192828 52 360 0.0 0.0 0.00 0.00 0.00 77 1010.8
20260506192338 52 360 0.0 0.0 0.00 0.00 0.00 77 1010.7
20260506191846 52 360 0.0 0.0 0.00 0.00 0.00 77 1010.7
20260506191337 52 360 0.0 0.0 0.00 0.00 0.00 76 1010.7
20260506190828 53 360 0.0 0.0 0.00 0.00 0.00 76 1010.6
20260506190340 53 360 0.0 0.0 0.00 0.00 0.00 75 1010.5
20260506185835 53 360 0.0 0.0 0.00 0.00 0.00 75 1010.5
20260506185356 53 360 0.0 0.0 0.00 0.00 0.00 74 1010.4
20260506184827 53 360 0.0 0.0 0.00 0.00 0.00 73 1010.4
20260506184342 54 360 0.0 0.0 0.00 0.00 0.00 73 1010.4
20260506183836 54 360 0.0 0.0 0.00 0.00 0.00 73 1010.4
20260506183336 54 360 0.0 2.0 0.00 0.00 0.00 72 1010.4
20260506182847 54 360 0.0 2.0 0.00 0.00 0.00 73 1010.3
20260506182404 54 360 0.0 2.0 0.00 0.00 0.00 72 1010.2
20260506181836 55 360 0.0 1.0 0.00 0.00 0.00 72 1010.2
20260506181347 55 360 0.0 0.0 0.00 0.00 0.00 72 1010.2
20260506180858 55 360 0.0 0.0 0.00 0.00 0.00 72 1010.0
20260506180343 55 360 0.0 0.0 0.00 0.00 0.00 72 1010.0
20260506175900 55 360 0.0 0.0 0.00 0.00 0.00 72 1009.8
20260506175331 55 360 0.0 0.0 0.00 0.00 0.00 72 1009.8
20260506174841 56 360 0.0 0.0 0.00 0.00 0.00 71 1009.8
20260506174334 56 360 0.0 0.0 0.00 0.00 0.00 71 1009.7
20260506173852 56 360 0.0 0.0 0.00 0.00 0.00 71 1009.6
20260506173342 56 360 0.0 0.0 0.00 0.00 0.00 71 1009.6
20260506172856 56 360 0.0 0.0 0.00 0.00 0.00 70 1009.5
20260506172328 57 360 0.0 0.0 0.00 0.00 0.00 70 1009.5